Debrecen, Hungary

6:22 AM CEST on May 25, 2017 (GMT +0200)
Debrecen

Weather History for LHDC - November, 2012

Change the Weather History Date:

Thursday, November 1, 2012

  Actual Average Record
Temperature  
Mean Temperature 42 °F -  
Max Temperature 51 °F 47 °F - ()
Min Temperature 31 °F 34 °F - ()
Degree Days  
Heating Degree Days 24    
Moisture  
Dew Point 39 °F    
Average Humidity 79    
Maximum Humidity 94    
Minimum Humidity 59    
Precipitation  
Precipitation 0.04 in 0.06 in - ()
Sea Level Pressure  
Sea Level Pressure 29.63 in    
Wind  
Wind Speed 9 mph ()    
Max Wind Speed 14 mph    
Max Gust Speed -    
Visibility 7.2 miles    
Events Rain    
T = Trace of Precipitation, MM = Missing Value Source: Averaged Metar Reports

Daily Weather History Graph

Daily Weather History Graph

Search for Another Location

Airport or City:

Trip Planner

Search our weather history database for the weather conditions in past years. The results will help you decide how hot, cold, wet, or windy it might be!

Date:

Astronomy

Nov. 01, 2012 Rise Set
Actual Time 6:17 AM CET 4:15 PM CET
Civil Twilight 5:45 AM CET 4:48 PM CET
Nautical Twilight 5:09 AM CET 5:24 PM CET
Astronomical Twilight 4:33 AM CET 6:00 PM CET
Moon 5:49 PM CET (11/1) 8:43 AM CET (11/1)
Length of Visible Light 11h 02m
Length of Day
9h 58m
Waning Gibbous, 94% of the Moon is Illuminated
Nov 1
Waning Gibbous
Nov 7
Last Quarter
Nov 13
New
Nov 20
First Quarter
Nov 28
Full

Hourly Weather History & Observations

Time (CET) Temp. Windchill Dew Point Humidity Pressure Visibility Wind Dir Wind Speed Gust Speed Precip Events Conditions
1:00 AM 33 °F - 30 °F 84% 29.90 in - ENE 4.5 mph - -  
5:15 AM 35.6 °F 27.5 °F 30.2 °F 81% 29.74 in - ENE 11.5 mph - N/A   Clear
5:45 AM 35.6 °F 28.6 °F 32.0 °F 87% 29.74 in - ENE 9.2 mph - N/A   Clear
6:00 AM - - - N/A% - 6.2 mi East 10.4 mph - N/A Rain Light Rain
6:15 AM 35.6 °F 28.6 °F 32.0 °F 87% 29.74 in - East 9.2 mph - N/A   Clear
6:45 AM 37.4 °F 29.8 °F 32.0 °F 81% 29.71 in - ENE 11.5 mph - N/A   Clear
7:00 AM 37 °F - 32 °F 75% 29.72 in 19 mi ENE 11.2 mph - -   Partly Cloudy
7:15 AM 39.2 °F 32.5 °F 33.8 °F 81% 29.71 in - East 10.4 mph - N/A   Clear
7:45 AM 39.2 °F 32.0 °F 33.8 °F 81% 29.68 in - ENE 11.5 mph - N/A   Clear
8:15 AM 41.0 °F 34.3 °F 33.8 °F 76% 29.68 in - ENE 11.5 mph - N/A   Clear
8:45 AM 42.8 °F 37.0 °F 35.6 °F 76% 29.65 in - East 10.4 mph - N/A   Clear
9:00 AM - - - N/A% - 6.2 mi ESE 11.5 mph - N/A Rain Light Rain
9:15 AM 44.6 °F 38.1 °F 35.6 °F 71% 29.65 in - ENE 13.8 mph - N/A   Clear
9:45 AM 46.4 °F 41.5 °F 37.4 °F 71% 29.65 in - ENE 10.4 mph - N/A   Clear
10:15 AM 48.2 °F - 37.4 °F 66% 29.65 in - ENE 9.2 mph - N/A   Clear
10:24 AM 48.2 °F - 39.2 °F 71% 29.65 in - ENE 9.2 mph - N/A   Unknown
10:45 AM 48.2 °F - 39.2 °F 71% 29.62 in 6.2 mi ENE 10.4 mph - N/A Rain Light Rain
11:15 AM 48.2 °F - 41.0 °F 76% 29.62 in 6.2 mi ENE 10.4 mph - N/A Rain Light Rain
11:45 AM 50.0 °F - 42.8 °F 76% 29.59 in 6.2 mi ENE 12.7 mph - N/A Rain Light Rain
12:00 PM - - - N/A% - 6.2 mi East 11.5 mph - N/A   Overcast
12:15 PM 51.8 °F - 41.0 °F 67% 29.59 in 6.2 mi East 12.7 mph - N/A Rain Light Rain
12:45 PM 51.8 °F - 42.8 °F 71% 29.56 in 6.2 mi East 13.8 mph - N/A Rain Light Rain
1:00 PM 52 °F - 42 °F 59% 29.57 in 12 mi East 13.4 mph - - Rain Light Rain
1:15 PM 51.8 °F - 42.8 °F 71% 29.56 in 6.2 mi East 10.4 mph - N/A Rain Light Rain
1:45 PM 50.0 °F - 44.6 °F 82% 29.56 in 6.2 mi East 9.2 mph - N/A Rain Light Rain
2:15 PM 50.0 °F - 44.6 °F 82% 29.56 in 6.2 mi East 10.4 mph - N/A Rain Light Rain
2:45 PM 50.0 °F - 46.4 °F 87% 29.56 in 6.2 mi East 11.5 mph - N/A Rain Light Rain
3:15 PM 50.0 °F - 46.4 °F 87% 29.53 in 6.2 mi East 10.4 mph - N/A Rain Light Rain
3:45 PM 50.0 °F - 46.4 °F 87% 29.53 in 6.2 mi East 10.4 mph - N/A Rain Light Rain
4:15 PM 50.0 °F - 48.2 °F 94% 29.53 in 6.2 mi East 10.4 mph - N/A   Overcast
4:45 PM 50.0 °F - 48.2 °F 94% 29.53 in 6.2 mi East 9.2 mph - N/A   Overcast
5:00 PM - - - N/A% - - North - - N/A   Unknown
7:00 PM 51 °F - 48 °F 87% 29.55 in - East 6.7 mph - -